Location: Courçay
(47.2523°N, 0.8761°E)
Time: 20:46:27
(UTC+00:00)

Sich 1 Rocket - Pass Details

Date: 18 November 2025
Orbit: 611 x 646 km, 82.5° (Epoch: 10 December)

Event Time Altitude Azimuth Distance (km) Brightness Sun altitude
Rises 18:05:38 0° 177° (S) 2,938 7.1 -18.1°
Reaches altitude 10° 18:07:54 10° 173° (S) 2,036 6.2 -18.5°
Maximum altitude 18:12:20 58° 95° (E) 755 3.6 -19.2°
Enters shadow 18:14:57 24° 24° (NNE) 1,351 5.0 -19.7°
